Fort Stockton, TX

10:22 PM CDT on July 23, 2017 (GMT -0500)
Fort Stockton-Pecos County

Weather History for KFST - June, 2012

Change the Weather History Date:

Saturday, June 30, 2012

  Actual Average Record
Temperature  
Mean Temperature 84 °F -  
Max Temperature 96 °F 93 °F 108 °F (2017)
Min Temperature 73 °F 68 °F 62 °F (2015)
Cooling Degree Days 20    
Growing Degree Days 34 (Base 50)    
Moisture  
Dew Point 54 °F    
Average Humidity 38    
Maximum Humidity 73    
Minimum Humidity 19    
Precipitation  
Precipitation 0.00 in - - ()
Sea Level Pressure  
Sea Level Pressure 29.76 in    
Wind  
Wind Speed 13 mph (SE)    
Max Wind Speed 18 mph    
Max Gust Speed 26 mph    
Visibility 10 miles    
Events Thunderstorm    
Averages and records for this station are not official NWS values.
T = Trace of Precipitation, MM = Missing Value Source: NWS Daily Summary

Daily Weather History Graph

Daily Weather History Graph

Search for Another Location

Airport or City:

Trip Planner

Search our weather history database for the weather conditions in past years. The results will help you decide how hot, cold, wet, or windy it might be!

Date:

Astronomy

Jun. 30, 2012 Rise Set
Actual Time 6:51 AM CDT 8:59 PM CDT
Civil Twilight 6:24 AM CDT 9:26 PM CDT
Nautical Twilight 5:50 AM CDT 10:00 PM CDT
Astronomical Twilight 5:13 AM CDT 10:36 PM CDT
Moon 6:00 PM CDT (6/30) 3:44 AM CDT (6/30)
Length of Visible Light 15h 02m
Length of Day
14h 07m
Waxing Gibbous, 87% of the Moon is Illuminated
Jun 30
Waxing Gibbous
Jul 3
Full
Jul 10
Last Quarter
Jul 18
New
Jul 26
First Quarter

Hourly Weather History & Observations

Time (CDT) Temp. Heat Index Dew Point Humidity Pressure Visibility Wind Dir Wind Speed Gust Speed Precip Events Conditions
12:53 AM 81.0 °F - 46.9 °F 30% 29.78 in 10.0 mi SSE 12.7 mph - N/A   Clear
1:53 AM 80.1 °F - 48.0 °F 32% 29.76 in 10.0 mi SSE 16.1 mph 21.9 mph N/A   Clear
2:53 AM 79.0 °F - 48.9 °F 35% 29.75 in 10.0 mi SSE 13.8 mph 23.0 mph N/A   Clear
3:53 AM 78.1 °F - 48.9 °F 36% 29.74 in 10.0 mi SSE 18.4 mph 24.2 mph N/A   Clear
4:53 AM 75.0 °F - 62.1 °F 64% 29.75 in 10.0 mi SSE 16.1 mph 23.0 mph N/A   Clear
6:53 AM 73.0 °F - 64.0 °F 73% 29.75 in 10.0 mi South 16.1 mph 24.2 mph N/A   Clear
7:27 AM 73.4 °F - 64.4 °F 73% 29.93 in 10.0 mi SSE 12.7 mph 20.7 mph N/A Thunderstorm Clear
7:53 AM 73.9 °F - 64.9 °F 73% 29.78 in 10.0 mi South 15.0 mph - N/A   Clear
8:53 AM 79.0 °F - 64.0 °F 60% 29.79 in 10.0 mi South 10.4 mph - N/A   Clear
9:53 AM 82.0 °F 83.0 °F 62.1 °F 51% 29.81 in 10.0 mi SW 4.6 mph - N/A   Clear
10:53 AM 86.0 °F 85.4 °F 59.0 °F 40% 29.79 in 10.0 mi SSE 3.5 mph - N/A   Clear
11:53 AM 90.0 °F - 46.9 °F 23% 29.79 in 10.0 mi ESE 9.2 mph - N/A   Clear
12:53 PM 91.9 °F - 46.0 °F 21% 29.79 in 10.0 mi ESE 13.8 mph 20.7 mph N/A   Clear
1:53 PM 91.9 °F - 46.9 °F 21% 29.77 in 10.0 mi East 10.4 mph 20.7 mph N/A   Clear
2:53 PM 95.0 °F - 46.9 °F 19% 29.75 in 10.0 mi ESE 12.7 mph 24.2 mph N/A   Clear
3:53 PM 96.1 °F - 48.0 °F 19% 29.73 in 10.0 mi East 13.8 mph 26.5 mph N/A   Clear
4:53 PM 96.1 °F - 48.0 °F 19% 29.71 in 10.0 mi ESE 12.7 mph 23.0 mph N/A   Clear
5:53 PM 95.0 °F - 50.0 °F 22% 29.69 in 10.0 mi ESE 17.3 mph 20.7 mph N/A   Partly Cloudy
6:53 PM 93.0 °F - 51.1 °F 24% 29.69 in 10.0 mi SE 12.7 mph 20.7 mph N/A   Clear
7:53 PM 91.9 °F - 52.0 °F 26% 29.70 in 10.0 mi SE 10.4 mph - N/A   Clear
8:53 PM 90.0 °F - 52.0 °F 27% 29.71 in 10.0 mi SE 8.1 mph - N/A   Clear
9:53 PM 87.1 °F 84.9 °F 53.1 °F 31% 29.73 in 10.0 mi SE 9.2 mph - N/A   Clear
10:53 PM 84.9 °F 83.3 °F 54.0 °F 34% 29.75 in 10.0 mi SSE 8.1 mph - N/A   Clear
11:53 PM 82.0 °F 83.0 °F 62.1 °F 51% 29.77 in 10.0 mi SSE 17.3 mph 23.0 mph N/A   Clear